Regional Weather Roundup
Issued by NWS

Home | Current Version | Previous Version | Text Only | Print | Product List | Glossary On
Versions: 1 2 3 4 5 6 7 8 9 10 11 12 13 14 15 16 17 18 19 20 21 22 23 24 25 26 27 28 29 30 31 32 33 34 35 36 37 38 39 40 41 42 43 44 45 46 47 48 49 50
000
ASUS43 KMPX 010101
RWRMN
WEATHER ROUNDUP FOR MINNESOTA
NATIONAL WEATHER SERVICE TWIN CITIES/CHANHASSEN MN
800 PM CDT TUE JUN 30 2015


NOTE: "FAIR" INDICATES FEW OR NO CLOUDS BELOW 12,000 FEET WITH NO
SIGNIFICANT WEATHER AND/OR OBSTRUCTIONS TO VISIBILITY. N/A MEANS
CURRENT SKY AND/OR WEATHER CONDITIONS ARE NOT AVAILABLE.

MNZ060>063-068>070-010200-
   Twin Cities Metro

CITY           SKY/WX    TMP DP  RH WIND       PRES   REMARKS
TWIN CITIES    MOCLDY    72  52  49 NE7       29.92R
ST PAUL        PTCLDY    71  57  61 NE10      29.92S
CRYSTAL        PTCLDY    72  55  55 E8        29.92R
BLAINE         PTCLDY    72  57  60 NE6       29.93
LAKEVILLE      CLEAR     68  57  68 E8        29.92S
EDEN PRAIRIE   PTCLDY    72  57  59 NE10      29.91R
SOUTH ST PAUL  PTCLDY    72  55  56 NE7       29.92S
LAKE ELMO      FAIR      68  57  68 NE5       29.94R
$$
MNZ001>005-007-008-013>017-022>024-027-028-010200-
   Northwest Minnesota

CITY           SKY/WX    TMP DP  RH WIND       PRES   REMARKS
BEMIDJI        MOSUNNY   70  54  57 CALM      29.93S
HALLOCK        CLOUDY    73  61  64 SW5       29.90S
ROSEAU         PTSUNNY   70  59  68 E3        29.93S
WARROAD        PTSUNNY   70  55  60 E6        29.94S
THIEF RVR FALL PTSUNNY   72  57  60 CALM      29.93S
CROOKSTON      PTSUNNY   72  59  64 SE3       29.92S
FOSSTON        PTSUNNY   66  55  68 CALM      29.94S
DETROIT LAKES  CLOUDY    72  55  56 CALM      29.94S
MOORHEAD       CLOUDY    72  61  68 CALM      29.91S
PARK RAPIDS    PTSUNNY   74  54  49 CALM      29.93S
$$
MNZ006-009>011-018-025>026-010200-
   North Central Minnesota

CITY           SKY/WX    TMP DP  RH WIND       PRES   REMARKS
BAUDETTE       CLOUDY    68  57  68 NE5       29.94S
FLAG ISLAND    CLOUDY    70  52  52 S3        29.93S
INTL FALLS     PTSUNNY   65  54  67 CALM      29.95S
WASKISH        PTSUNNY   72  57  60 CALM      29.93S
BIG FORK       PTSUNNY   70  57  64 CALM      29.94F
LONGVILLE      SUNNY     70  61  73 CALM      29.94S
GRAND RAPIDS   PTSUNNY   66  55  68 CALM      29.95S
CRANE LAKE     PTCLDY    64  55  72 CALM      29.97R
ORR            MOCLDY    63  54  72 CALM      29.94R
COOK           MOCLDY    64  55  72 CALM      29.95S
$$
MNZ012-019>021-037-010200-
   Northeast Minnesota

CITY           SKY/WX    TMP DP  RH WIND       PRES   REMARKS
DULUTH         MOCLDY    57  46  66 SE6       29.97R
ELY            CLEAR     64  46  52 CALM      29.95S
HIBBING        MOCLDY    69  51  52 N5        29.95R
EVELETH        MOCLDY    64  52  63 CALM      29.96S
DULUTH HARBOR  PTCLDY    57  54  88 NE9       29.98S
TWO HARBORS    PTCLDY    59  50  72 E5        29.96R
SILVER BAY     PTCLDY    55  46  71 CALM      29.96S
GRAND MARAIS     N/A     51  48  89 W5        29.98S
G MARAIS ARPRT CLEAR     52  45  76 CALM      29.99R
$$
MNZ029>031-032-039>041-046>048-054>057-064-010200-
   West Central Minnesota

CITY           SKY/WX    TMP DP  RH WIND       PRES   REMARKS
FERGUS FALLS   CLOUDY    70  63  78 W3        29.91S
WHEATON        CLOUDY    70  61  73 CALM      29.93S
MORRIS         CLOUDY    72  61  68 CALM      29.92S
ALEXANDRIA     CLOUDY    71  57  61 SE5       29.95R
ELBOW LAKE     FAIR      69  62  79 CALM      29.92S
WADENA           N/A     72  57  60 CALM      29.93S
GLENWOOD       CLOUDY    70  61  73 CALM      29.94S
APPLETON       PTSUNNY   73  61  64 CALM      29.91S
BENSON         CLOUDY    70  63  78 CALM      29.93R
ORTONVILLE     PTSUNNY   72  61  68 CALM      29.92R
MADISON        PTSUNNY   70  63  78 E5        29.91S
WILLMAR        FAIR      72  63  73 CALM      29.95R
$$
MNZ033>034-036-042>043-049>051-058-059-010200-
   Central Minnesota

CITY           SKY/WX    TMP DP  RH WIND       PRES   REMARKS
ST CLOUD       PTCLDY    69  59  70 E3        29.93R
SAUK CENTRE    FAIR      70  57  63 CALM      29.94R
PAYNESVILLE    PTSUNNY   69  57  65 E3        29.94R
AITKIN         MOCLDY    72  57  60 CALM      29.93R
PINE RIVER       N/A     72  57  60 CALM      29.96S
BRAINERD       MOSUNNY   71  56  58 SE5       29.93R
STAPLES        PTSUNNY   70  54  56 CALM      29.93S
LONG PRAIRIE   FAIR      68  59  73 CALM      29.94S
LITTLE FALLS   MOSUNNY   70  52  52 CALM      29.93S
LITCHFIELD     MOCLDY    73  57  56 E3        29.94R
BUFFALO        PTCLDY    71  55  56 CALM      29.94R
MAPLE LAKE     PTCLDY    70  59  68 CALM      29.94R
$$
MNZ037-044-045-052-053-010200-
   East Central Minnesota

CITY           SKY/WX    TMP DP  RH WIND       PRES   REMARKS
PRINCETON      PTCLDY    72  59  64 CALM      29.93S
MORA           MOCLDY    64  52  63 CALM      29.96S
CAMBRIDGE      PTCLDY    73  57  56 CALM      29.92S
RUSH CITY      PTCLDY    67  56  68 NE3       29.94R
MOOSE LAKE     CLOUDY    64  57  77 CALM      29.94R
HINCKLEY       FAIR      68  54  60 SE3       29.95R
CLOQUET        MOCLDY    59  48  67 E3        29.97R
MCGREGOR       MOCLDY    66  57  72 SE7       29.95R
$$
MNZ071>073-080-081-089-090-097-098-010200-
   Southwest Minnesota

CITY           SKY/WX    TMP DP  RH WIND       PRES   REMARKS
MONTEVIDEO     PTSUNNY   72  61  68 CALM      29.93R
GRANITE FALLS  PTSUNNY   72  59  65 CALM      29.93S
CANBY          CLOUDY    70  63  78 E3        29.92S
MARSHALL       CLOUDY    70  61  73 SE5         N/A
REDWOOD FALLS  MOCLDY    72  59  63 CALM      29.91R
OLIVIA         PTSUNNY   68  61  77 CALM      29.92R
PIPESTONE      CLOUDY    70  63  78 SE5       29.93R
WINDOM         CLOUDY    70  61  73 CALM      29.93S
WORTHINGTON    CLOUDY    70  61  73 E6        29.92S
JACKSON        CLOUDY    70  63  78 NE5       29.94R
TRACY          CLOUDY    70  66  85 CALM      29.93S
SLAYTON        CLOUDY    69  63  81 CALM      29.94R
$$
MNZ065>067-074>077-082>085-091>093-010200-
   South Central Minnesota

CITY           SKY/WX    TMP DP  RH WIND       PRES   REMARKS
MANKATO        MOCLDY    72  59  64 E3        29.92R
NEW ULM        MOCLDY    72  63  73 CALM      29.92R
ST JAMES       MOCLDY    72  64  78 CALM      29.93R
FAIRMONT       CLOUDY    70  61  73 CALM      29.92R
GLENCOE        CLOUDY    72  61  70 CALM      29.92R
FARIBAULT      PTCLDY    70  61  73 CALM      29.93R
OWATONNA       PTCLDY    70  55  60 CALM      29.93R
WASECA         MOCLDY    70  57  64 NE3       29.94R
ALBERT LEA     PTCLDY    70  59  68 E3        29.92R
$$
MNZ078>079-086>088-094>096-010200-
   Southeast Minnesota

CITY           SKY/WX    TMP DP  RH WIND       PRES   REMARKS
ROCHESTER      PTCLDY    68  55  63 NE9       29.93R
RED WING       PTCLDY    72  55  56 NE3       29.92R
DODGE CENTER   PTCLDY    70  55  60 NE5       29.93S
WINONA         PTCLDY    70  54  56 N3        29.92R
AUSTIN         PTCLDY    68  57  68 CALM      29.92R
PRESTON        PTCLDY    67  55  66 N5        29.93R
$$
ABBREVIATIONS USED IN REMARKS
   TC - TEMPERATURES IN CELSIUS
  WCI - WIND CHILL INDEX
   HX - HEAT INDEX
  VSB - VISIBILITY
$$


USA.gov is the U.S. government's official web portal to all federal, state and local government web resources and services.